| time (UTC) | temp C | wind direction | speed KPH | gust KPH | rain 1hr cm | rain 24hr cm | rain mn cm | humidity % | barometer mb |
| 20260507093056 | 10 | 85 | 4.8 | 9.7 | 0.00 | 0.00 | 0.00 | 86 | 1020.0 |
| 20260507091552 | 10 | 55 | 4.8 | 14.5 | 0.00 | 0.00 | 0.00 | 85 | 1019.9 |
| 20260507090052 | 10 | 103 | 8.0 | 20.9 | 0.00 | 0.00 | 0.00 | 85 | 1019.3 |
| 20260507084555 | 11 | 98 | 8.0 | 14.5 | 0.00 | 0.00 | 0.00 | 85 | 1019.3 |
| 20260507083052 | 11 | 80 | 8.0 | 14.5 | 0.00 | 0.00 | 0.00 | 85 | 1019.5 |
| 20260507081551 | 11 | 47 | 6.4 | 11.3 | 0.00 | 0.00 | 0.00 | 85 | 1019.1 |
| 20260507080100 | 11 | 58 | 8.0 | 12.9 | 0.00 | 0.00 | 0.00 | 85 | 1018.9 |
| 20260507074601 | 11 | 65 | 4.8 | 14.5 | 0.00 | 0.00 | 0.00 | 85 | 1018.7 |
| 20260507073054 | 11 | 96 | 4.8 | 14.5 | 0.00 | 0.00 | 0.00 | 85 | 1018.7 |
| 20260507071550 | 11 | 70 | 3.2 | 14.5 | 0.00 | 0.00 | 0.00 | 84 | 1018.7 |
| 20260507070048 | 11 | 72 | 4.8 | 14.5 | 0.00 | 0.00 | 0.00 | 84 | 1018.4 |
| 20260507064551 | 11 | 72 | 6.4 | 11.3 | 0.00 | 0.00 | 0.00 | 83 | 1018.6 |
| 20260507063049 | 11 | 72 | 1.6 | 4.8 | 0.00 | 0.00 | 0.00 | 83 | 1018.5 |
| 20260507061545 | 11 | 105 | 0.0 | 4.8 | 0.00 | 0.00 | 0.00 | 83 | 1018.7 |
| 20260507060044 | 11 | 78 | 1.6 | 6.4 | 0.00 | 0.00 | 0.00 | 82 | 1018.4 |
| 20260507054623 | 11 | 94 | 0.0 | 4.8 | 0.00 | 0.00 | 0.00 | 81 | 1018.1 |
| 20260507053052 | 12 | 108 | 1.6 | 4.8 | 0.00 | 0.00 | 0.00 | 81 | 1017.9 |
| 20260507051549 | 12 | 0 | 0.0 | 3.2 | 0.00 | 0.00 | 0.00 | 80 | 1017.6 |
| 20260507050057 | 12 | 0 | 0.0 | 3.2 | 0.00 | 0.00 | 0.00 | 78 | 1017.7 |
| 20260507044550 | 12 | 89 | 0.0 | 4.8 | 0.00 | 0.00 | 0.00 | 78 | 1017.3 |
| 20260507043049 | 12 | 86 | 1.6 | 6.4 | 0.00 | 0.00 | 0.00 | 77 | 1017.1 |
| 20260507041549 | 13 | 96 | 3.2 | 9.7 | 0.00 | 0.00 | 0.00 | 77 | 1017.0 |
| 20260507040054 | 13 | 101 | 3.2 | 9.7 | 0.00 | 0.00 | 0.00 | 76 | 1016.8 |
| 20260507034557 | 13 | 75 | 4.8 | 11.3 | 0.00 | 0.00 | 0.00 | 76 | 1016.5 |
| 20260507033052 | 13 | 86 | 3.2 | 12.9 | 0.00 | 0.00 | 0.00 | 74 | 1016.2 |
| 20260507031603 | 13 | 102 | 6.4 | 19.3 | 0.00 | 0.00 | 0.00 | 73 | 1016.2 |
| 20260507030054 | 14 | 110 | 6.4 | 16.1 | 0.00 | 0.00 | 0.00 | 72 | 1016.2 |
| 20260507024547 | 15 | 120 | 8.0 | 17.7 | 0.00 | 0.00 | 0.00 | 71 | 1016.1 |
| 20260507023042 | 15 | 84 | 6.4 | 14.5 | 0.00 | 0.00 | 0.00 | 71 | 1015.9 |
| 20260507021550 | 15 | 85 | 6.4 | 16.1 | 0.00 | 0.00 | 0.00 | 69 | 1015.6 |
| 20260507020055 | 15 | 106 | 8.0 | 17.7 | 0.00 | 0.00 | 0.00 | 68 | 1015.4 |
| 20260507014551 | 16 | 87 | 9.7 | 17.7 | 0.00 | 0.00 | 0.00 | 67 | 1015.4 |
| 20260507013046 | 16 | 84 | 6.4 | 16.1 | 0.00 | 0.00 | 0.00 | 66 | 1015.4 |
| 20260507011549 | 17 | 70 | 8.0 | 20.9 | 0.00 | 0.00 | 0.00 | 64 | 1015.1 |
| 20260507010050 | 17 | 75 | 11.3 | 20.9 | 0.00 | 0.00 | 0.00 | 62 | 1014.8 |
| 20260507004554 | 18 | 86 | 6.4 | 17.7 | 0.00 | 0.00 | 0.00 | 60 | 1014.7 |
| 20260507003052 | 18 | 75 | 8.0 | 24.1 | 0.00 | 0.00 | 0.00 | 57 | 1014.4 |
| 20260507001555 | 18 | 75 | 9.7 | 22.5 | 0.00 | 0.00 | 0.00 | 57 | 1014.5 |
| 20260507000048 | 18 | 45 | 11.3 | 24.1 | 0.00 | 0.00 | 0.00 | 56 | 1014.4 |
| 20260506234549 | 19 | 70 | 11.3 | 22.5 | 0.00 | 0.00 | 0.00 | 55 | 1014.4 |
| 20260506233102 | 19 | 64 | 11.3 | 19.3 | 0.00 | 0.00 | 0.00 | 54 | 1014.3 |
| 20260506231546 | 20 | 53 | 12.9 | 19.3 | 0.00 | 0.00 | 0.00 | 55 | 1014.3 |
| 20260506230053 | 20 | 49 | 6.4 | 22.5 | 0.00 | 0.00 | 0.00 | 55 | 1014.0 |
| 20260506224552 | 20 | 24 | 8.0 | 20.9 | 0.00 | 0.00 | 0.00 | 54 | 1014.1 |
| 20260506223049 | 21 | 62 | 6.4 | 19.3 | 0.00 | 0.00 | 0.00 | 54 | 1013.8 |
| 20260506221551 | 21 | 51 | 6.4 | 16.1 | 0.00 | 0.00 | 0.00 | 53 | 1013.6 |
| 20260506220054 | 21 | 70 | 8.0 | 22.5 | 0.00 | 0.00 | 0.00 | 52 | 1013.4 |
| 20260506214552 | 21 | 58 | 6.4 | 16.1 | 0.00 | 0.00 | 0.00 | 52 | 1013.5 |
| 20260506213107 | 21 | 93 | 4.8 | 12.9 | 0.00 | 0.00 | 0.00 | 52 | 1013.6 |
| 20260506211549 | 21 | 106 | 6.4 | 16.1 | 0.00 | 0.00 | 0.00 | 54 | 1013.6 |
| 20260506210055 | 21 | 57 | 9.7 | 16.1 | 0.00 | 0.00 | 0.00 | 54 | 1014.0 |
| 20260506204553 | 21 | 58 | 9.7 | 22.5 | 0.00 | 0.00 | 0.00 | 54 | 1014.1 |
| 20260506203050 | 20 | 160 | 1.6 | 11.3 | 0.00 | 0.00 | 0.00 | 55 | 1014.4 |
| 20260506201550 | 20 | 7 | 6.4 | 16.1 | 0.00 | 0.00 | 0.00 | 57 | 1014.4 |
| 20260506200048 | 20 | 1 | 3.2 | 20.9 | 0.00 | 0.00 | 0.00 | 58 | 1014.7 |
| 20260506194604 | 18 | 44 | 6.4 | 17.7 | 0.00 | 0.00 | 0.00 | 60 | 1014.8 |
| 20260506193050 | 18 | 71 | 1.6 | 14.5 | 0.00 | 0.00 | 0.00 | 62 | 1015.0 |
| 20260506191555 | 17 | 32 | 6.4 | 12.9 | 0.00 | 0.00 | 0.00 | 65 | 1015.0 |
| 20260506190051 | 17 | 46 | 4.8 | 17.7 | 0.00 | 0.00 | 0.00 | 66 | 1015.4 |
| 20260506184553 | 16 | 53 | 11.3 | 17.7 | 0.00 | 0.00 | 0.00 | 67 | 1015.8 |
| 20260506183050 | 16 | 40 | 8.0 | 19.3 | 0.00 | 0.00 | 0.00 | 70 | 1015.9 |
| 20260506181549 | 16 | 46 | 14.5 | 24.1 | 0.00 | 0.00 | 0.00 | 68 | 1016.0 |
| 20260506174550 | 15 | 78 | 9.7 | 19.3 | 0.00 | 0.00 | 0.00 | 72 | 1016.3 |
| 20260506173058 | 14 | 71 | 12.9 | 22.5 | 0.00 | 0.00 | 0.00 | 73 | 1016.2 |
| 20260506171558 | 13 | 51 | 9.7 | 22.5 | 0.00 | 0.00 | 0.00 | 75 | 1016.1 |
| 20260506170106 | 12 | 66 | 12.9 | 22.5 | 0.00 | 0.00 | 0.00 | 77 | 1016.1 |
| 20260506164556 | 12 | 99 | 17.7 | 25.7 | 0.00 | 0.00 | 0.00 | 78 | 1016.2 |
| 20260506163111 | 12 | 53 | 14.5 | 27.4 | 0.00 | 0.00 | 0.00 | 80 | 1016.4 |
| 20260506161551 | 12 | 34 | 20.9 | 32.2 | 0.00 | 0.00 | 0.00 | 79 | 1016.1 |
| 20260506160055 | 12 | 64 | 20.9 | 30.6 | 0.00 | 0.00 | 0.00 | 80 | 1015.6 |
| 20260506154610 | 11 | 74 | 19.3 | 32.2 | 0.00 | 0.00 | 0.00 | 81 | 1015.7 |
| 20260506153054 | 11 | 44 | 16.1 | 29.0 | 0.00 | 0.00 | 0.00 | 81 | 1015.7 |
| 20260506151557 | 11 | 63 | 16.1 | 32.2 | 0.00 | 0.00 | 0.00 | 81 | 1015.5 |
| 20260506150051 | 12 | 51 | 19.3 | 33.8 | 0.00 | 0.00 | 0.00 | 80 | 1015.2 |
| 20260506144549 | 11 | 43 | 27.4 | 41.8 | 0.00 | 0.00 | 0.00 | 80 | 1014.9 |
| 20260506143101 | 11 | 70 | 22.5 | 37.0 | 0.00 | 0.00 | 0.00 | 82 | 1015.1 |
| 20260506141550 | 11 | 63 | 16.1 | 29.0 | 0.00 | 0.00 | 0.00 | 82 | 1015.1 |
| 20260506140054 | 10 | 70 | 17.7 | 29.0 | 0.00 | 0.00 | 0.00 | 83 | 1015.3 |
| 20260506134556 | 10 | 86 | 12.9 | 27.4 | 0.00 | 0.00 | 0.00 | 83 | 1015.0 |
| 20260506133048 | 10 | 80 | 11.3 | 25.7 | 0.00 | 0.00 | 0.00 | 84 | 1015.1 |
| 20260506131551 | 10 | 67 | 16.1 | 25.7 | 0.00 | 0.00 | 0.00 | 85 | 1015.1 |
| 20260506130048 | 10 | 92 | 16.1 | 30.6 | 0.00 | 0.00 | 0.00 | 85 | 1014.6 |
| 20260506124542 | 10 | 70 | 14.5 | 27.4 | 0.00 | 0.00 | 0.00 | 85 | 1014.3 |
| 20260506123052 | 10 | 101 | 8.0 | 25.7 | 0.00 | 0.00 | 0.00 | 86 | 1014.4 |
| 20260506121547 | 10 | 76 | 12.9 | 20.9 | 0.00 | 0.00 | 0.00 | 87 | 1014.2 |
| 20260506114558 | 10 | 117 | 11.3 | 22.5 | 0.00 | 0.00 | 0.00 | 85 | 1013.5 |
| 20260506113053 | 10 | 67 | 16.1 | 24.1 | 0.00 | 0.00 | 0.00 | 85 | 1012.9 |
| 20260506111548 | 10 | 95 | 12.9 | 24.1 | 0.00 | 0.00 | 0.00 | 85 | 1012.8 |
| 20260506110055 | 10 | 89 | 12.9 | 24.1 | 0.00 | 0.00 | 0.00 | 86 | 1012.5 |
| 20260506104550 | 10 | 60 | 16.1 | 22.5 | 0.00 | 0.00 | 0.00 | 87 | 1012.3 |
| 20260506103049 | 10 | 94 | 14.5 | 25.7 | 0.00 | 0.00 | 0.00 | 87 | 1012.2 |
| 20260506101601 | 10 | 90 | 11.3 | 19.3 | 0.00 | 0.00 | 0.00 | 87 | 1012.0 |
| 20260506100048 | 10 | 79 | 11.3 | 19.3 | 0.00 | 0.00 | 0.00 | 87 | 1012.1 |
| 20260506094606 | 10 | 51 | 9.7 | 17.7 | 0.00 | 0.00 | 0.00 | 87 | 1011.9 |